Details From TJSJ - San Juan - Luis Munoz Marin Intl
To MDPC - Punta Cana Intl
Flight Number -
Tags generated
Created
Modified
Stats Distance 135 nm / 250 km
Max Altitude 16,100 ft / 4,907 m
Waypoints 5
Social Downloads 8
Likes 0
Share VATSIM

Download

Looking for another format? Having issues loading an existing format? Contact us
Advertisement - Login to hide

Notes

Basic altitude profile: - Ascent Rate: 2500ft/min - Ascent Speed: 250kts - Cruise Altitude: 35000ft - Cruise Speed: 420kts - Descent Rate: 1500ft/min - Descent Speed: 250kts Options: - Use NATs: yes - Use PACOTS: yes - Use low airways: yes - Use high airways: yes

Route

TJSJ BOCCA RTE2 BQN MDPC

ID Type Via Altitude Latitude Longitude Leg Dist Tot Dist Heading (true) Name
O TJSJ APT - 0 ft / 0 m 18.43878˚ -66.00202˚ - 0 nm - San Juan - Luis Munoz Marin Intl
BOCCA FIX - 12,200 ft / 3,719 m 18.47594˚ -66.60239˚ 34 nm 34 nm 274° / 274° -
PEBLO FIX RTE2 (AWY-LO) 16,100 ft / 4,907 m 18.48644˚ -66.84545˚ 13 nm 48 nm 273° / 273° -
BQN VOR RTE2 (AWY-LO) 14,300 ft / 4,359 m 18.49800˚ -67.10836˚ 14 nm 63 nm 273° / 273° BORINQUEN VORTAC
O MDPC APT - 0 ft / 0 m 18.57057˚ -68.36613˚ 71 nm 134 nm 274° / 273° Punta Cana Intl

Altitude Profile

Advertisement - Login to hide

TJSJ

Details ICAO TJSJ (SJU)
Name San Juan - Luis Munoz Marin Intl
Region USA (Puerto Rico)
Timezone America/Puerto_Rico (UTC-4.0)
Stats Elevation 9 ft / 3 m (AMSL)
Location 18.438777° -66.002018°
Runways 2
Magnetic Variation 13.221° W

METAR

TJSJ 111256Z 06009KT 10SM SCT034 SCT042 SCT050 27/22 A2997

Decode

TAF

TAF TJSJ 111141Z 1112/1212 06010KT P6SM VCSH FEW035 SCT040 SCT100 FM111430 05011KT P6SM SCT025 SCT045 FM112300 VRB05KT P6SM SCT025 FM120400 VRB02KT P6SM VCSH SCT025 SCT040 FM120900 00000KT P6SM FEW025

Decode

Departure Runways

ID Width Length Bearing (true) Bearing (mag) Surface Threshold Offset Overrun Length
08 200 ft / 61 m 9,781 ft / 2,981 m 66.87° 80.09° Asphalt 0 ft / 0 m 200 ft / 61 m
10 151 ft / 46 m 8,007 ft / 2,440 m 90.14° 103.36° Concrete 0 ft / 0 m 200 ft / 61 m
26 200 ft / 61 m 9,781 ft / 2,981 m 246.88° 260.10° Asphalt 0 ft / 0 m 230 ft / 70 m
28 151 ft / 46 m 8,007 ft / 2,440 m 270.15° 283.37° Concrete 0 ft / 0 m 200 ft / 61 m

MDPC

Details ICAO MDPC (PUJ)
Name Punta Cana Intl
Region Dominican Republic
Timezone America/Santo_Domingo (UTC-4.0)
Stats Elevation 46 ft / 14 m (AMSL)
Location 18.570574° -68.366130°
Runways 2
Magnetic Variation 12.179° W

METAR

MDPC 111300Z 06008KT 9999 FEW025 27/22 Q1015 NOSIG

Decode

TAF

Not found

Destination Runways

ID Width Length Bearing (true) Bearing (mag) Surface Threshold Offset Overrun Length
08 148 ft / 45 m 10,110 ft / 3,082 m 74.20° 86.38° Asphalt 0 ft / 0 m 374 ft / 114 m
09 148 ft / 45 m 10,163 ft / 3,098 m 84.79° 96.97° Asphalt 0 ft / 0 m 374 ft / 114 m
26 148 ft / 45 m 10,110 ft / 3,082 m 254.21° 266.39° Asphalt 0 ft / 0 m 374 ft / 114 m
27 148 ft / 45 m 10,163 ft / 3,098 m 264.80° 276.98° Asphalt 0 ft / 0 m 374 ft / 114 m

Popular Alternatives